Location: Quaker Farms
(41.4276°N, 73.1557°W)
Time: 23:37:50
(UTC+00:00)

Vanguard 1 - Pass Details

Date: 22 June 2021
Orbit: 651 x 3832 km, 34.2° (Epoch: 26 July)

Event Time Altitude Azimuth Distance (km) Brightness Sun altitude
Rises 05:14:07 0° 273° (W) 7,862 14.7 -25.0°
Reaches altitude 10° 05:19:56 10° 271° (W) 6,617 14.2 -24.9°
Maximum altitude 05:39:19 60° 199° (SSW) 2,772 11.9 -24.3°
Drops below altitude 10° 05:50:13 10° 122° (ESE) 3,934 12.9 -23.9°
Sets 05:52:45 0° 118° (ESE) 4,608 13.4 -23.8°
